Change the Weather History Date:

Thursday, November 14, 2013

  Actual Average (KOMA) Record (KOMA)
Temperature  
Mean Temperature 42 °F 40 °F  
Max Temperature 54 °F 50 °F 76 °F (1964)
Min Temperature 31 °F 30 °F -3 °F (1940)
Degree Days  
Heating Degree Days 22 25  
Month to date heating degree days 306  
Since 1 July heating degree days 791  
Cooling Degree Days 0 0  
Month to date cooling degree days 0  
Year to date cooling degree days 1112  
Moisture  
Dew Point 29 °F    
Average Humidity 61    
Maximum Humidity 73    
Minimum Humidity 45    
Precipitation  
Precipitation 0.00 in 0.05 in 0.91 in (1926)
Month to date precipitation 0.82  
Year to date precipitation 28.76  
Snow  
Snow 0.00 in 0.10 in - ()
Month to date snowfall 0.6  
Since 1 July snowfall 0.9  
Snow Depth -    
Sea Level Pressure  
Sea Level Pressure 29.92 in    
Wind  
Wind Speed 8 mph (SSW)    
Max Wind Speed 13 mph    
Max Gust Speed -    
Visibility 10 miles    
Events      
T = Trace of Precipitation, MM = Missing Value Source: NWS Daily Summary

Daily Weather History Graph

Daily Weather History Graph

Search for Another Location

Airport or City:

Trip Planner

Search our weather history database for the weather conditions in past years. The results will help you decide how hot, cold, wet, or windy it might be!

Date:

Astronomy

Nov. 14, 2013 Rise Set
Actual Time 7:12 AM CST 5:05 PM CST
Civil Twilight 6:42 AM CST 5:35 PM CST
Nautical Twilight 6:08 AM CST 6:08 PM CST
Astronomical Twilight 5:36 AM CST 6:41 PM CST
Moon 3:28 PM CST (11/14) 4:06 AM CST (11/14)
Length of Visible Light 10h 52m
Length of Day
9h 53m
Waxing Gibbous, 92% of the Moon is Illuminated
Nov 14
Waxing Gibbous
Nov 17
Full
Nov 25
Last Quarter
Dec 2
New
Dec 9
First Quarter

Hourly Weather History & Observations

Time (CST) Temp. Windchill Dew Point Humidity Pressure Visibility Wind Dir Wind Speed Gust Speed Precip Events Conditions
12:15 AM 38.5 °F 30.7 °F 26.1 °F 61% 29.97 in 10.0 mi South 12.7 mph - N/A   Clear
12:35 AM 38.3 °F 30.9 °F 26.1 °F 61% 29.96 in 10.0 mi South 11.5 mph - N/A   Clear
12:55 AM 37.6 °F 30.5 °F 26.1 °F 63% 29.96 in 10.0 mi South 10.4 mph - N/A   Clear
1:15 AM 36.9 °F 29.1 °F 25.9 °F 64% 29.96 in 10.0 mi South 11.5 mph - N/A   Clear
1:35 AM 36.5 °F 29.2 °F 25.7 °F 65% 29.96 in 10.0 mi South 10.4 mph - N/A   Clear
1:55 AM 36.0 °F 28.0 °F 25.7 °F 66% 29.95 in 10.0 mi South 11.5 mph - N/A   Clear
2:15 AM 35.4 °F 27.3 °F 25.5 °F 67% 29.94 in 10.0 mi South 11.5 mph - N/A   Clear
2:35 AM 35.2 °F 28.1 °F 25.5 °F 68% 29.94 in 10.0 mi South 9.2 mph - N/A   Clear
2:55 AM 34.5 °F 27.3 °F 25.3 °F 69% 29.94 in 10.0 mi South 9.2 mph - N/A   Clear
3:15 AM 35.6 °F 29.9 °F 25.3 °F 66% 29.94 in 10.0 mi SSE 6.9 mph - N/A   Clear
3:35 AM 33.6 °F 26.8 °F 24.6 °F 70% 29.93 in 10.0 mi South 8.1 mph - N/A   Clear
3:55 AM 33.1 °F 24.9 °F 25.2 °F 73% 29.93 in 10.0 mi South 10.4 mph - N/A   Clear
4:15 AM 34.7 °F 25.9 °F 25.5 °F 69% 29.92 in 10.0 mi South 12.7 mph - N/A   Clear
4:35 AM 35.6 °F 28.0 °F 25.3 °F 66% 29.91 in 10.0 mi South 10.4 mph - N/A   Clear
4:55 AM 35.2 °F 27.1 °F 24.8 °F 66% 29.91 in 10.0 mi South 11.5 mph - N/A   Clear
5:15 AM 34.9 °F 27.7 °F 24.8 °F 67% 29.92 in 10.0 mi South 9.2 mph - N/A   Clear
5:35 AM 34.5 °F 27.9 °F 24.6 °F 67% 29.93 in 10.0 mi South 8.1 mph - N/A   Clear
5:55 AM 33.6 °F 26.8 °F 24.6 °F 70% 29.92 in 10.0 mi South 8.1 mph - N/A   Clear
6:15 AM 32.9 °F 25.9 °F 24.1 °F 70% 29.91 in 10.0 mi South 8.1 mph - N/A   Clear
6:35 AM 33.1 °F 26.9 °F 24.1 °F 70% 29.93 in 10.0 mi South 6.9 mph - N/A   Clear
6:55 AM 31.8 °F 24.6 °F 23.7 °F 72% 29.92 in 10.0 mi South 8.1 mph - N/A   Clear
7:15 AM 32.2 °F 25.8 °F 23.9 °F 72% 29.93 in 10.0 mi South 6.9 mph - N/A   Clear
7:35 AM 31.8 °F 24.6 °F 23.9 °F 73% 29.93 in 10.0 mi South 8.1 mph - N/A   Clear
7:55 AM 33.3 °F 27.1 °F 24.6 °F 71% 29.93 in 10.0 mi SSW 6.9 mph - N/A   Clear
8:15 AM 34.7 °F 28.1 °F 25.2 °F 68% 29.94 in 10.0 mi SSW 8.1 mph - N/A   Clear
8:35 AM 36.1 °F 29.3 °F 25.5 °F 65% 29.94 in 10.0 mi SSW 9.2 mph - N/A   Clear
8:55 AM 38.7 °F 31.8 °F 25.5 °F 59% 29.94 in 10.0 mi SSW 10.4 mph - N/A   Clear
9:15 AM 40.6 °F 33.8 °F 26.2 °F 57% 29.96 in 10.0 mi SW 11.5 mph - N/A   Clear
9:35 AM 41.2 °F 35.5 °F 25.9 °F 55% 29.95 in 10.0 mi SSW 9.2 mph - N/A   Clear
9:55 AM 41.5 °F 35.9 °F 26.6 °F 55% 29.95 in 10.0 mi WSW 9.2 mph - N/A   Clear
10:15 AM 43.0 °F 38.2 °F 27.9 °F 55% 29.95 in 10.0 mi SW 8.1 mph - N/A   Clear
10:35 AM 43.5 °F 37.9 °F 28.2 °F 55% 29.93 in 10.0 mi SSW 10.4 mph - N/A   Clear
10:55 AM 44.1 °F 40.1 °F 28.6 °F 55% 29.94 in 10.0 mi WSW 6.9 mph - N/A   Clear
11:15 AM 45.3 °F 42.3 °F 29.1 °F 53% 29.94 in 10.0 mi WSW 5.8 mph - N/A   Clear
11:35 AM 47.5 °F - 30.2 °F 51% 29.93 in 10.0 mi WSW 4.6 mph - N/A   Clear
11:55 AM 48.4 °F - 30.9 °F 51% 29.92 in 10.0 mi North 4.6 mph - N/A   Clear
12:15 PM 48.2 °F - 31.1 °F 52% 29.92 in 10.0 mi Calm Calm - N/A   Clear
12:35 PM 49.6 °F - 31.6 °F 50% 29.91 in 10.0 mi SW 3.5 mph - N/A   Clear
12:55 PM 49.8 °F - 31.8 °F 50% 29.91 in 10.0 mi Calm Calm - N/A   Clear
1:15 PM 50.9 °F - 32.0 °F 48% 29.90 in 10.0 mi South 4.6 mph - N/A   Clear
1:35 PM 51.8 °F - 32.2 °F 47% 29.89 in 10.0 mi South 5.8 mph - N/A   Clear
1:55 PM 51.3 °F - 32.0 °F 48% 29.89 in 10.0 mi South 5.8 mph - N/A   Clear
2:15 PM 50.9 °F - 32.2 °F 49% 29.88 in 10.0 mi South 6.9 mph - N/A   Clear
2:35 PM 52.5 °F - 32.7 °F 47% 29.89 in 10.0 mi SSW 3.5 mph - N/A   Clear
2:55 PM 53.2 °F - 32.7 °F 46% 29.89 in 10.0 mi South 4.6 mph - N/A   Clear
3:15 PM 54.1 °F - 33.3 °F 45% 29.88 in 10.0 mi South 6.9 mph - N/A   Clear
3:35 PM 53.6 °F - 33.1 °F 46% 29.89 in 10.0 mi South 5.8 mph - N/A   Clear
3:55 PM 54.3 °F - 33.8 °F 46% 29.89 in 10.0 mi South 5.8 mph - N/A   Scattered Clouds
4:15 PM 52.5 °F - 33.4 °F 48% 29.89 in 10.0 mi South 5.8 mph - N/A   Mostly Cloudy
4:35 PM 51.1 °F - 33.3 °F 51% 29.89 in 10.0 mi South 4.6 mph - N/A   Scattered Clouds
4:55 PM 48.2 °F - 32.4 °F 54% 29.89 in 10.0 mi South 4.6 mph - N/A   Scattered Clouds
5:15 PM 47.3 °F - 32.2 °F 56% 29.89 in 10.0 mi South 4.6 mph - N/A   Mostly Cloudy
5:35 PM 47.5 °F - 32.9 °F 57% 29.89 in 10.0 mi SSE 4.6 mph - N/A   Overcast
5:55 PM 46.2 °F 45.0 °F 32.5 °F 59% 29.90 in 10.0 mi South 3.5 mph - N/A   Mostly Cloudy
6:15 PM 45.7 °F 44.4 °F 32.4 °F 60% 29.90 in 10.0 mi South 3.5 mph - N/A   Mostly Cloudy
6:35 PM 43.9 °F 41.3 °F 32.0 °F 63% 29.90 in 10.0 mi South 4.6 mph - N/A   Scattered Clouds
6:55 PM 44.2 °F 42.7 °F 32.0 °F 62% 29.90 in 10.0 mi South 3.5 mph - N/A   Clear
7:15 PM 44.4 °F 42.0 °F 32.0 °F 62% 29.90 in 10.0 mi South 4.6 mph - N/A   Clear
7:35 PM 44.1 °F 41.5 °F 32.0 °F 63% 29.90 in 10.0 mi SW 4.6 mph - N/A   Clear
7:55 PM 42.1 °F 38.4 °F 31.8 °F 67% 29.89 in 10.0 mi South 5.8 mph - N/A   Clear
8:15 PM 41.5 °F 38.6 °F 31.8 °F 68% 29.89 in 10.0 mi SSW 4.6 mph - N/A   Clear
8:35 PM 41.0 °F 37.1 °F 31.6 °F 69% 29.89 in 10.0 mi SSW 5.8 mph - N/A   Clear
8:55 PM 40.5 °F 37.3 °F 31.6 °F 71% 29.89 in 10.0 mi SSW 4.6 mph - N/A   Clear
9:15 PM 40.3 °F 37.1 °F 31.5 °F 71% 29.89 in 10.0 mi SSW 4.6 mph - N/A   Clear
9:35 PM 41.9 °F 38.2 °F 31.8 °F 67% 29.90 in 10.0 mi SW 5.8 mph - N/A   Clear
9:55 PM 41.5 °F 36.4 °F 31.6 °F 68% 29.90 in 10.0 mi SW 8.1 mph - N/A   Clear
10:15 PM 41.4 °F 37.6 °F 31.6 °F 68% 29.89 in 10.0 mi SW 5.8 mph - N/A   Clear
10:35 PM 41.2 °F 38.2 °F 31.3 °F 68% 29.89 in 10.0 mi SW 4.6 mph - N/A   Clear
10:55 PM 41.4 °F 38.4 °F 32.0 °F 69% 29.89 in 10.0 mi SW 4.6 mph - N/A   Clear
11:15 PM 41.2 °F 37.3 °F 32.0 °F 70% 29.89 in 10.0 mi SW 5.8 mph - N/A   Clear
11:35 PM 41.4 °F 37.6 °F 32.0 °F 69% 29.88 in 10.0 mi SW 5.8 mph - N/A   Clear
11:55 PM 42.1 °F 39.2 °F 32.0 °F 67% 29.88 in 10.0 mi WSW 4.6 mph - N/A   Clear